Location: Axtheid
(49.6213°N, 11.8205°E)
Time: 04:10:30
(UTC+00:00)

Daily predictions for brighter satellites

Satellite Brightness Start Highest point End
(mag) Time Altitude Azimuth Time Altitude Azimuth Time Altitude Azimuth
ATLAS 2AS CENTAUR R/B 4.3 01:39:29 31° N 01:39:29 31° N 01:44:51 10° NE
Cosmos 2237 Rocket 4.2 02:06:51 24° NE 02:06:51 24° NE 02:09:14 10° NE
Cosmos 2219 Rocket 4.2 02:17:02 23° NNE 02:17:02 23° NNE 02:19:05 10° NNE
CZ-4C R/B 3.9 02:16:59 30° ENE 02:16:59 30° ENE 02:20:09 10° NE
Cosmos 2360 Rocket 4.4 02:28:50 17° N 02:28:50 17° N 02:30:23 10° NNE
COSMOS 2428 4.4 02:34:32 26° NNE 02:34:32 26° NNE 02:37:05 10° NNE
Cosmos 1943 Rocket 4.0 02:31:36 24° NNE 02:33:06 27° NE 02:37:45 10° ESE
USA 215 3.6 02:30:19 10° ENE 02:35:33 59° NE 02:35:33 59° NE
SL-16 R/B 3.4 02:46:27 36° ESE 02:46:30 36° ESE 02:51:38 10° NE
NOSS 3-1 (A) 3.9 02:56:41 82° NW 02:57:08 90° NE 03:05:41 10° SE
Cosmos 2369 Rocket 3.8 02:53:23 16° N 02:57:19 32° NE 03:02:25 10° ESE
Nadezhda 3 Rocket 4.2 03:07:35 62° N 03:07:35 62° N 03:12:49 10° N
ADEOS II 4.3 03:13:27 10° N 03:14:19 14° NNW 03:14:19 14° NNW
Cosmos 2333 Rocket 3.7 03:19:49 25° NNW 03:19:49 25° NNW 03:23:02 10° NNE
IDEFIX/ARIANE 42P 3.6 03:18:41 10° N 03:21:52 36° N 03:21:52 36° N
Cosmos 2251 Rocket 3.8 03:28:28 60° SE 03:29:02 65° ESE 03:34:18 10° NNE
ATLAS 2AS CENTAUR R/B 4.3 03:26:54 19° NW 03:31:14 30° N 03:37:43 10° ENE
PAYLOAD A 3.9 03:29:42 10° NNE 03:34:30 82° E 03:34:30 82° E
BREEZE M DEB (TANK) 4.5 03:15:05 10° WNW 03:37:06 58° SW 03:42:18 10° SE
NOSS 0 Rocket 4.5 03:40:41 42° NW 03:40:41 42° NW 03:46:15 10° NNE
Cosmos 1535 Rocket 4.3 03:34:14 10° NNW 03:40:26 66° W 03:46:32 10° S
CZ-4B R/B 4.1 03:39:36 10° NNE 03:43:04 36° E 03:44:12 28° SE
ATLAS CENTAUR R/B 1.6 03:46:18 72° NNE 03:46:18 72° NNE 03:50:20 10° NE
Lacrosse 5 1.7 03:47:37 80° WNW 03:47:54 86° SW 03:52:58 10° SE
Cosmos 2237 Rocket 2.9 03:48:41 38° NW 03:48:41 38° NW 03:53:23 10° NNE
Cosmos 1743 Rocket 4.1 03:47:51 10° N 03:52:08 56° ENE 03:56:23 10° SSE
MSX 3.8 03:48:29 10° N 03:54:04 55° WNW 03:54:27 54° W
H-2A R/B 3.0 03:49:59 10° NNE 03:54:20 62° ESE 03:57:25 19° S
GEOS 3 Rocket 4.2 03:49:12 10° NE 03:54:26 57° SE 03:57:21 26° SSW
ADEOS 3.5 03:50:50 10° N 03:56:00 61° WNW 03:56:19 60° W
BREEZE-M DEB (TANK) 3.5 03:54:29 40° W 03:57:12 78° N 04:01:20 10° E
CZ-2C R/B 2.4 03:52:33 10° NNE 03:57:46 76° WNW 03:59:16 47° SSW
Cosmos 2219 Rocket 3.8 03:58:45 19° NNW 03:58:45 19° NNW 04:02:23 10° N
Meteor 1-31 Rocket 2.9 03:55:07 10° NNE 03:58:56 72° ESE 03:59:24 63° SSE
BREEZE-M DEB (TANK) 4.0 03:58:30 54° SSW 03:59:18 67° SSE 04:08:45 10° ENE
STARLINK-1178 4.4 04:00:17 34° NE 04:00:17 34° NE 04:02:27 10° ENE
Cosmos 1356 Rocket 3.3 04:01:12 75° NNW 04:01:12 75° NNW 04:05:02 10° N
STARLINK-1120 4.3 04:02:08 35° NE 04:02:08 35° NE 04:04:23 10° ENE
CZ-4C R/B 2.9 04:02:10 36° NW 04:03:04 39° NNW 04:09:06 10° NE
STARLINK-1131 4.2 04:04:12 37° NE 04:04:12 37° NE 04:06:32 10° ENE
Meteor 2-10 Rocket 3.5 04:03:59 51° WSW 04:04:56 60° WNW 04:10:04 10° N
STARLINK-1190 4.1 04:06:14 38° NNE 04:06:14 38° NNE 04:08:39 10° ENE
Cosmos 1842 Rocket 3.7 04:02:57 10° S 04:07:21 75° E 04:11:52 10° NNE
STARLINK-1177 4.5 04:09:43 27° NE 04:09:43 27° NE 04:11:20 10° ENE
STARLINK-1167 4.4 04:10:47 28° NE 04:10:47 28° NE 04:12:29 10° ENE
Cosmos 2360 Rocket 4.4 04:11:22 10° NNW 04:11:40 10° NNW 04:11:57 10° NNW
STARLINK-1136 4.1 04:15:33 32° NNE 04:15:33 32° NNE 04:17:33 10° ENE
Cosmos 1934 Rocket 4.4 04:09:22 10° NNW 04:15:06 38° W 04:20:51 10° SSW
COSMOS 2428 4.4 04:16:33 17° NW 04:16:57 17° NNW 04:20:34 10° N
Cosmos 1943 Rocket 2.0 04:13:12 18° NW 04:17:20 67° WSW 04:22:46 10° SSE
NOSS 2-1 (E) 3.1 04:17:29 60° NW 04:17:29 60° NW 04:21:22 10° NE
ALOS 3.0 04:13:58 10° NNE 04:18:35 55° E 04:23:09 10° S
USA 215 3.7 04:13:17 10° ENE 04:19:32 49° N 04:22:54 27° WNW
Cosmos 1869 4.3 04:16:00 10° S 04:19:50 48° E 04:23:41 10° NNE
CZ-4B R/B 3.9 04:17:18 10° N 04:21:34 69° WNW 04:24:21 22° SSW
Cosmos 921 Rocket 3.4 04:17:36 10° NNW 04:22:04 66° ENE 04:26:25 10° SSE
COSMO-SKYMED 1 2.4 04:19:46 10° SSE 04:24:06 85° WSW 04:28:29 10° NNW
USA 116 4.2 04:21:45 10° SE 04:24:49 46° ENE 04:27:49 10° N
STARLINK-1129 3.6 04:24:44 43° NNW 04:24:54 44° N 04:28:01 10° ENE
SJ-12 4.4 04:22:40 10° NNE 04:26:48 64° ESE 04:30:54 10° S
STARLINK-1134 3.6 04:26:33 42° NNW 04:26:49 43° N 04:29:56 10° ENE
STARLINK-1135 3.6 04:28:49 41° NNW 04:29:10 43° N 04:32:17 10° ENE
SL-16 R/B 2.5 04:28:22 32° WSW 04:30:31 46° NW 04:36:00 10° NNE
STARLINK-1141 3.6 04:30:54 40° NNW 04:31:20 43° N 04:34:28 10° ENE
STARLINK-1140 3.6 04:32:54 39° NNW 04:33:26 43° N 04:36:33 10° ENE
Cosmos 2221 2.3 04:30:10 10° SSW 04:34:27 76° WNW 04:38:46 10° N
STARLINK-1156 3.6 04:34:56 38° NW 04:35:34 43° N 04:38:41 10° ENE
STARLINK-1170 3.4 04:35:55 36° N 04:35:58 36° N 04:38:29 10° ENE
Cosmos 1605 Rocket 4.4 04:31:36 10° NNW 04:37:18 39° W 04:42:54 10° SSW
STARLINK-1148 3.7 04:36:58 36° NW 04:37:41 43° N 04:40:49 10° ENE
FENGYUN 3A 3.8 04:32:47 10° NNE 04:38:16 78° ESE 04:43:42 10° S
STARLINK-1158 3.7 04:39:04 35° NW 04:39:52 43° N 04:43:00 10° ENE
Cosmos 482 Debris 4.2 04:41:08 28° SE 04:41:08 28° SE 04:42:09 10° ESE
Cosmos 2369 Rocket 2.3 04:36:04 10° NW 04:41:40 56° WSW 04:47:14 10° S
Aureole 2 Rocket 2.0 04:42:36 38° NW 04:43:30 61° WSW 04:46:36 10° SSE
Cosmos 2016 Rocket 4.3 04:38:04 10° N 04:44:18 72° ENE 04:50:35 10° SSE
Cosmos 614 Rocket 4.0 04:40:11 10° SSW 04:45:21 88° ESE 04:50:36 10° NNE
Cosmos 1603 3.8 04:40:53 10° SSW 04:46:36 85° ESE 04:52:20 10° NNE
CZ-4B DEB 4.4 04:44:27 10° NNE 04:49:59 77° ESE 04:55:26 10° S
Meteor PRIRODA 3.8 04:46:48 10° N 04:50:25 49° WNW 04:53:58 10° SSW
Cosmos 1862 3.7 04:48:26 10° N 04:52:23 64° ENE 04:56:20 10° SSE
Cosmos 1943 3.4 04:47:07 10° SSW 04:52:43 75° ESE 04:58:22 10° NNE
Cosmos 2263 4.2 04:48:04 10° NW 04:53:42 61° WSW 04:59:14 10° SSE
STARLINK-1179 3.4 04:55:12 28° NW 04:56:03 37° N 04:58:32 10° ENE
STARLINK-1176 3.4 04:55:41 28° NW 04:56:34 38° N 04:59:03 10° ENE
Meteor 2-3 Rocket 4.3 04:51:50 10° NNW 04:56:59 35° W 05:02:10 10° SSW
CZ-4B R/B 3.7 04:54:41 10° NNE 04:59:59 61° ESE 05:05:12 10° S
Cosmos 1656 Rocket 3.6 04:56:36 10° NNW 05:02:18 79° WSW 05:07:58 10° SSE
IDEFIX/ARIANE 42P 4.4 05:00:23 10° NNW 05:02:28 12° NW 05:02:41 12° NW
Cosmos 2333 Rocket 4.3 05:03:05 10° NNW 05:04:23 11° NNW 05:05:40 10° N
Cosmos 1484 Rocket 3.5 05:01:49 10° N 05:05:23 34° WNW 05:08:58 10° SW
Cosmos 1633 2.7 05:02:14 10° NNW 05:05:47 50° W 05:09:19 10° S
Cosmos 1727 Rocket 4.3 05:00:43 10° SW 05:06:35 44° WNW 05:12:29 10° N
Cosmos 1238 4.4 05:03:55 10° SSW 05:06:49 45° WNW 05:09:51 10° N
NOAA 6 4.2 05:03:44 10° NNE 05:08:57 81° ESE 05:14:07 10° SSW
Cosmos 1805 Rocket 3.6 05:06:13 10° NNW 05:10:29 54° W 05:14:42 10° S
SKYMED 2 4.4 05:08:37 10° SSW 05:12:24 29° W 05:16:13 10° NW
Cosmos 2173 Rocket 4.1 05:07:07 10° NNW 05:13:13 53° W 05:19:13 10° SSW
Sich 1 2.9 05:11:01 10° NNW 05:15:17 66° W 05:19:33 10° S
STARLINK-1153 3.4 05:14:21 17° WNW 05:16:22 44° N 05:19:12 10° E
STARLINK-1180 3.4 05:14:33 17° WNW 05:16:35 45° N 05:19:27 10° E
STARLINK-1174 3.4 05:15:00 16° WNW 05:17:02 45° N 05:19:52 10° E
STARLINK-1139 3.4 05:15:13 16° WNW 05:17:16 45° N 05:20:06 10° E
STARLINK-1133 3.4 05:15:25 16° WNW 05:17:29 45° N 05:20:19 10° E
STARLINK-1151 3.4 05:15:40 16° WNW 05:17:44 45° N 05:20:35 10° E
CZ-4B R/B 4.0 05:15:11 10° NNW 05:17:59 20° WNW 05:20:20 12° WSW
STARLINK-1160 3.4 05:16:18 16° WNW 05:18:24 45° N 05:21:15 10° E
STARLINK-1161 3.4 05:16:32 16° WNW 05:18:37 45° N 05:21:28 10° E
STARLINK-1145 3.4 05:16:44 16° WNW 05:18:51 45° N 05:21:41 10° E
Cosmos 1346 Rocket 4.1 05:15:15 10° N 05:19:00 42° ENE 05:22:42 10° SE
STARLINK-1172 3.4 05:16:57 16° WNW 05:19:04 45° N 05:21:55 10° E
STARLINK-1162 3.5 05:17:03 15° WNW 05:19:26 47° N 05:22:31 10° E
STARLINK-1182 3.4 05:17:23 16° WNW 05:19:32 45° N 05:22:22 10° E
STARLINK-1164 3.4 05:17:35 15° WNW 05:19:44 45° N 05:22:35 10° E
STARLINK-1168 3.4 05:17:49 15° WNW 05:19:58 45° N 05:22:49 10° E
PSLV R/B 4.3 05:16:59 10° N 05:20:21 33° WNW 05:23:45 10° SW
STARLINK-1183 3.4 05:18:27 15° WNW 05:20:38 45° N 05:23:29 10° E
STARLINK-1181 3.4 05:18:40 15° WNW 05:20:51 46° N 05:23:43 10° E
STARLINK-1157 3.5 05:18:51 15° WNW 05:21:20 48° N 05:24:25 10° E
STARLINK-1196 3.4 05:19:20 15° WNW 05:21:33 46° N 05:24:24 10° E
STARLINK-1186 3.4 05:19:46 15° WNW 05:22:00 46° N 05:24:51 10° E
STARLINK-1185 3.4 05:19:58 15° WNW 05:22:13 46° N 05:25:04 10° E
STARLINK-1175 3.4 05:20:12 15° WNW 05:22:27 46° N 05:25:18 10° E
Cosmos 1238 Rocket 3.8 05:16:22 10° NNW 05:22:33 59° W 05:27:51 10° S
STARLINK-1147 3.4 05:20:24 14° WNW 05:22:40 46° N 05:25:32 10° E
STARLINK-1146 3.4 05:20:36 14° WNW 05:22:53 46° N 05:25:45 10° E
STARLINK-1152 3.4 05:20:50 14° WNW 05:23:08 46° N 05:25:59 10° E
Okean O Rocket 1.5 05:18:45 10° NNE 05:23:09 79° WNW 05:27:30 10° SSW
STARLINK-1195 3.4 05:21:03 14° WNW 05:23:21 46° N 05:26:13 10° E
STARLINK-1159 3.5 05:20:51 14° WNW 05:23:24 48° N 05:26:31 10° E
STARLINK-1137 3.4 05:21:16 14° WNW 05:23:35 46° N 05:26:26 10° E
STARLINK-1142 3.4 05:21:30 14° WNW 05:23:49 46° N 05:26:40 10° E
ATLAS 2AS CENTAUR R/B 3.6 05:16:22 10° NW 05:23:59 53° NE 05:31:00 10° ESE
STARLINK-1127 3.3 05:21:42 14° WNW 05:24:01 46° N 05:26:52 10° E
STARLINK-1184 3.3 05:21:56 14° WNW 05:24:16 46° N 05:27:06 10° E
STARLINK-1193 3.3 05:22:08 14° WNW 05:24:29 47° N 05:27:20 10° E
STARLINK-1194 3.3 05:22:21 14° WNW 05:24:42 47° N 05:27:33 10° E
PAYLOAD B 4.2 05:19:30 10° NNE 05:25:05 68° WNW 05:30:35 10° SSW
ATLAS CENTAUR R/B 3.0 05:22:30 13° WNW 05:25:24 21° NNW 05:28:46 10° NNE
STARLINK-1171 3.5 05:22:59 13° WNW 05:25:37 49° N 05:28:43 10° E
Cosmos 2100 Rocket 4.4 05:21:17 10° NNW 05:26:59 39° W 05:32:37 10° SSW
STARLINK-1155 3.5 05:24:44 13° WNW 05:27:28 49° N 05:30:35 10° E
Cosmos 1763 Rocket 4.2 05:23:24 10° NNW 05:28:40 58° ENE 05:33:54 10° SE
H-2A R/B 4.0 05:26:22 10° NNW 05:29:25 19° WNW 05:32:30 10° WSW
STARLINK-1166 3.5 05:26:53 12° WNW 05:29:41 50° N 05:32:48 10° E
Cosmos 1340 3.0 05:26:22 10° N 05:30:08 68° ENE 05:33:52 10° SSE
Lacrosse 5 3.2 05:26:51 11° W 05:30:17 21° SW 05:34:04 10° S
STARLINK-1165 3.4 05:28:43 12° WNW 05:31:38 51° NNE 05:34:44 10° E
STARLINK-1149 3.1 05:29:32 12° WNW 05:31:55 48° NNE 05:34:34 10° E
STARLINK-1128 4.5 05:28:19 10° SW 05:32:10 47° SSE 05:36:00 10° ENE
GEOS 3 Rocket 4.2 05:27:25 10° NNE 05:32:21 41° NW 05:37:18 10° WSW
STARLINK-1169 3.4 05:30:43 11° WNW 05:33:42 51° NNE 05:36:50 10° E
Cosmos 2237 Rocket 4.1 05:31:27 10° NW 05:33:50 13° NNW 05:36:13 10° N
Cosmos 2084 3.9 05:30:01 10° SW 05:34:30 72° SE 05:38:59 10° NE
CZ-2C R/B 4.2 05:32:22 10° NNW 05:35:08 15° NW 05:37:53 10° W
STARLINK-1178 3.4 05:32:37 10° WNW 05:35:41 52° NNE 05:38:48 10° E
STARLINK-1113 4.4 05:32:44 10° SW 05:36:35 50° SSE 05:40:28 10° ENE
STARLINK-1102 4.4 05:32:47 10° SW 05:36:42 50° SSE 05:40:37 10° ENE
STARLINK-1118 2.7 05:34:20 10° SW 05:36:52 65° SSE 05:39:25 10° ENE
STARLINK-1132 3.1 05:34:50 10° WNW 05:37:32 52° NNE 05:40:16 10° E
STARLINK-1120 3.4 05:34:29 10° WNW 05:37:37 53° NNE 05:40:45 10° E
Cosmos 2061 Rocket 4.2 05:32:10 10° NNW 05:38:10 48° W 05:44:06 10° SSW
STARLINK-1070 3.0 05:36:35 10° WSW 05:39:29 68° SSE 05:42:25 10° ENE
STARLINK-1131 3.4 05:36:42 10° WNW 05:39:50 54° NNE 05:42:59 10° E
STARLINK-1150 3.0 05:37:22 10° WNW 05:40:04 53° NNE 05:42:45 10° E
ADEOS Rocket 3.3 05:34:07 10° S 05:40:13 56° W 05:47:05 10° NNW
STARLINK-1124 2.8 05:37:21 10° WSW 05:40:16 80° SSE 05:43:13 10° ENE
STARLINK-1066 3.0 05:37:41 10° WSW 05:40:36 69° SSE 05:43:31 10° ENE
STARLINK-1081 2.9 05:37:55 10° WSW 05:40:50 70° SSE 05:43:45 10° ENE
STARLINK-1119 4.3 05:37:06 10° SW 05:40:59 54° SSE 05:44:53 10° ENE
STARLINK-1069 2.9 05:38:22 10° WSW 05:41:16 70° SSE 05:44:11 10° ENE
STARLINK-1111 4.3 05:37:29 10° SW 05:41:24 53° SSE 05:45:21 10° ENE
STARLINK-1163 3.0 05:38:41 10° WNW 05:41:26 54° NNE 05:44:10 10° E
STARLINK-1085 2.9 05:38:35 10° WSW 05:41:30 70° SSE 05:44:26 10° ENE
STARLINK-1086 2.9 05:38:49 10° WSW 05:41:43 71° SSE 05:44:39 10° ENE
STARLINK-1095 2.9 05:39:02 10° WSW 05:41:57 71° SSE 05:44:52 10° ENE
STARLINK-1190 3.4 05:38:49 10° WNW 05:41:58 55° NNE 05:45:07 10° E
Cosmos 1315 Rocket 3.9 05:38:18 10° S 05:42:07 50° E 05:45:57 10° NNE
STARLINK-1077 2.9 05:39:16 10° WSW 05:42:11 71° SSE 05:45:06 10° ENE
STARLINK-1075 2.9 05:39:29 10° WSW 05:42:23 71° SSE 05:45:19 10° ENE
STARLINK-1093 2.9 05:39:42 10° WSW 05:42:37 72° SSE 05:45:33 10° ENE
STARLINK-1074 2.9 05:39:56 10° WSW 05:42:50 72° SSE 05:45:46 10° ENE
STARLINK-1087 2.9 05:40:10 10° WSW 05:43:05 72° SSE 05:46:01 10° ENE
STARLINK-1173 3.0 05:40:25 10° WNW 05:43:08 55° NNE 05:45:50 10° E
STARLINK-1088 2.9 05:40:23 10° WSW 05:43:17 73° SSE 05:46:13 10° ENE
STARLINK-1177 2.9 05:40:49 10° WNW 05:43:30 55° NNE 05:46:11 10° E
STARLINK-1115 2.9 05:40:36 10° WSW 05:43:31 73° SSE 05:46:27 10° ENE
STARLINK-1076 2.9 05:40:50 10° WSW 05:43:45 73° SSE 05:46:41 10° ENE
STARLINK-1092 2.9 05:41:03 10° WSW 05:43:58 73° SSE 05:46:54 10° ENE
STARLINK-1080 2.9 05:41:17 10° WSW 05:44:11 74° SSE 05:47:07 10° ENE
STARLINK-1090 2.9 05:41:30 10° WSW 05:44:25 74° SSE 05:47:21 10° ENE
STARLINK-1089 2.9 05:41:43 10° WSW 05:44:38 74° SSE 05:47:34 10° ENE
STARLINK-1167 2.9 05:41:56 10° WNW 05:44:38 56° NNE 05:47:21 10° E
STARLINK-1107 2.9 05:41:57 10° WSW 05:44:51 74° SSE 05:47:47 10° ENE
STARLINK-1109 2.9 05:42:09 10° WSW 05:45:04 75° SSE 05:47:59 10° ENE
STARLINK-1091 2.9 05:42:25 10° WSW 05:45:20 75° SSE 05:48:16 10° ENE
STARLINK-1114 4.2 05:41:33 10° SW 05:45:28 57° SSE 05:49:23 10° ENE
STARLINK-1072 2.9 05:42:38 10° WSW 05:45:33 75° SSE 05:48:29 10° ENE
STARLINK-1096 2.8 05:42:52 10° WSW 05:45:46 75° SSE 05:48:42 10° ENE
STARLINK-1079 2.8 05:43:05 10° WSW 05:46:00 76° SSE 05:48:56 10° ENE
STARLINK-1073 4.2 05:42:06 10° SW 05:46:03 57° SSE 05:50:01 10° ENE
STARLINK-1116 2.8 05:43:19 10° WSW 05:46:13 76° SSE 05:49:09 10° ENE
STARLINK-1094 2.8 05:43:45 10° WSW 05:46:40 77° SSE 05:49:36 10° ENE
Cosmos 1151 Rocket 3.1 05:42:34 10° S 05:46:52 85° E 05:51:15 10° N
STARLINK-1117 2.8 05:43:58 10° WSW 05:46:53 77° SSE 05:49:49 10° ENE
STARLINK-1078 2.8 05:44:12 10° WSW 05:47:07 77° SSE 05:50:03 10° ENE
STARLINK-1108 2.8 05:44:25 10° WSW 05:47:19 77° SSE 05:50:16 10° ENE
STARLINK-1071 2.8 05:44:40 10° WSW 05:47:33 78° SSE 05:50:30 10° ENE
STARLINK-1110 2.8 05:44:53 10° WSW 05:47:47 78° SSE 05:50:44 10° ENE
STARLINK-1122 2.8 05:45:19 10° WSW 05:48:14 78° SSE 05:51:10 10° ENE
STARLINK-1126 2.8 05:45:32 10° WSW 05:48:28 79° SSE 05:51:23 10° ENE
Cosmos 1328 Rocket 3.6 05:44:02 10° S 05:48:29 90° NW 05:52:58 10° N
BREEZE M DEB (TANK) 4.1 05:45:04 10° W 05:48:39 66° SSW 06:00:11 10° ESE
STARLINK-1082 2.8 05:45:46 10° WSW 05:48:41 79° SSE 05:51:37 10° ENE
TELKOM 3 2.6 05:46:40 10° W 05:48:49 80° S 05:50:57 10° ESE
STARLINK-1100 2.8 05:45:59 10° WSW 05:48:54 79° SSE 05:51:50 10° ENE
STARLINK-1083 2.8 05:46:13 10° WSW 05:49:09 79° SSE 05:52:04 10° ENE
STARLINK-1125 2.8 05:46:27 10° WSW 05:49:23 80° SSE 05:52:18 10° ENE
STARLINK-1136 2.9 05:46:54 10° WNW 05:49:40 59° NNE 05:52:25 10° E
STARLINK-1130 (DARKSAT) 4.1 05:45:53 10° SW 05:49:49 60° SSE 05:53:46 10° ENE
AQUARIUS 4.3 05:45:51 10° NNE 05:50:24 84° ESE 05:54:54 10° SSW
STARLINK-1121 4.1 05:46:40 10° SW 05:50:38 60° SSE 05:54:37 10° ENE
Cosmos 1725 Rocket 4.2 05:45:53 10° NNW 05:51:51 49° W 05:57:50 10° SSW
